User: anonymous   Login
Location: Unspecified
(0.0000°N, 0.0000°E)
Time: 07:26:21
(UTC+00:00)
Language:

Akebono - Orbit

View from above orbital plane
View from above orbital plane
View from above satellite
View from above satellite

Ground track
Ground track

The orbit data is extracted from the following two-line orbital elements,

1 19822U 89016A   18115.91666707 +.00016425 -10231-6 +31089-3 0  9990
2 19822 075.0307 287.8826 1850733 074.8967 304.8526 11.81748894945990
Epoch (UTC): 25 April 2018 22:00:00
Eccentricity: 0.1850733
inclination: 75.0307°
perigee height: 257 km
apogee height: 3270 km
right ascension of ascending node: 287.8826°
argument of perigee: 74.8967°
revolutions per day: 11.81748894
mean anomaly at epoch: 304.8526°
orbit number at epoch: 94599

The dashed part of the orbit path shows where the satellite is in the earth's shadow,  

DLR